Walla Walla, WA
on Thursday, February 7, 2013

Thursday
Previous Day Next Day
Daily Summary
 ActualAverage (KPDT)Record (KPDT)
Temperature
Mean Temperature °F 38°F  
Max Temperature 52°F 45°F 62°F (1945)
Min Temperature 36°F 30°F -19°F (1929)
Degree Days
Heating Degree Days 20 28  
Month to date heating degree days 196  
Since 1 July heating degree days 3354  
Cooling Degree Days 0 0  
Month to date cooling degree days 0  
Year to date cooling degree days 0  
Moisture
Dew Point 31°F   
Average Humidity 60    
Maximum Humidity 81    
Minimum Humidity 37    
Precipitation
Precipitation 0.02 in 0.04 in 0.90 in (1899)
Month to date precipitation 0.27  
Year to date precipitation 1.70  
Snow
Snow 0.00 in 0.20 in 5.90 in (1985)
Month to date snowfall 0.9  
Year to date snowfall 4.6  
Since 1 July snowfall 12.1  
Snow Depth in   
Wind
Wind Speed 9 mph   
Max Wind Speed 18 mph   
Max Gust Speed 29 mph   
Visibility 10 miles   
Events Rain   

Key: T is trace of precipitation, MM is missing value
Source: NWS Daily Summary
Time(PST)TemperatureDew PointHumidity Pressure Visibility Wind DirectionWind SpeedGust SpeedPrecipitationEvents Conditions
12:53 AM 50.0°F 26.1°F 39% 29.86 in 10.0 miles Calm Calm - N/A   Clear
1:53 AM 48.0°F 27.0°F 44% 29.87 in 10.0 miles Calm Calm - N/A   Clear
2:33 AM 51.8°F 26.6°F 38% 29.86 in 10.0 miles SSE 17.3 mph 28.8 mph N/A   Mostly Cloudy
2:53 AM 52.0°F 26.1°F 37% 29.86 in 10.0 miles South 18.4 mph 25.3 mph N/A   Overcast
3:53 AM 52.0°F 27.0°F 38% 29.86 in 10.0 miles South 16.1 mph 21.9 mph N/A   Overcast
4:53 AM 48.9°F 30.0°F 48% 29.91 in 10.0 miles SW 12.7 mph - N/A   Overcast
5:53 AM 48.9°F 28.9°F 46% 29.91 in 10.0 miles South 11.5 mph - N/A   Overcast
6:53 AM 46.9°F 32.0°F 56% 29.94 in 10.0 miles WSW 12.7 mph - N/A   Overcast
7:01 AM 44.6°F 32.0°F 61% 29.92 in 10.0 miles West 16.1 mph - N/A   Overcast
7:53 AM 45.0°F 32.0°F 60% 29.96 in 10.0 miles SSW 12.7 mph - N/A   Overcast
8:53 AM 43.0°F 34.0°F 71% 29.99 in 10.0 miles SSW 13.8 mph - N/A   Overcast
9:53 AM 42.1°F 35.1°F 76% 30.00 in 10.0 miles SSW 13.8 mph - 0.00 in Rain Light Rain
10:16 AM 41.0°F 35.6°F 81% 30.00 in 6.0 miles WSW 11.5 mph - 0.01 in Rain Light Rain
10:42 AM 42.8°F 35.6°F 76% 30.00 in 10.0 miles SSE 8.1 mph - 0.02 in Rain Light Rain
10:53 AM 43.0°F 34.0°F 71% 30.01 in 10.0 miles South 9.2 mph - 0.02 in   Overcast
11:53 AM 45.0°F 32.0°F 60% 29.99 in 10.0 miles South 11.5 mph - N/A   Overcast
12:53 PM 44.1°F 32.0°F 63% 29.99 in 10.0 miles SSW 11.5 mph - N/A   Overcast
1:53 PM 44.1°F 30.9°F 60% 29.98 in 10.0 miles SSW 10.4 mph - N/A   Overcast
2:53 PM 44.1°F 30.9°F 60% 29.99 in 10.0 miles SSW 5.8 mph - N/A   Overcast
3:53 PM 43.0°F 30.9°F 62% 29.99 in 10.0 miles SSW 8.1 mph - N/A   Mostly Cloudy
4:53 PM 42.1°F 30.9°F 65% 30.00 in 10.0 miles WSW 6.9 mph - N/A   Overcast
5:53 PM 42.1°F 30.9°F 65% 30.02 in 10.0 miles SSE 3.5 mph - N/A   Overcast
6:53 PM 42.1°F 30.9°F 65% 30.04 in 10.0 miles SE 4.6 mph - N/A   Overcast
7:53 PM 41.0°F 30.0°F 65% 30.04 in 10.0 miles ESE 9.2 mph - N/A   Overcast
8:53 PM 39.9°F 30.0°F 68% 30.05 in 10.0 miles ESE 10.4 mph - N/A   Overcast
9:53 PM 39.9°F 28.9°F 65% 30.06 in 10.0 miles ESE 9.2 mph - N/A   Mostly Cloudy
10:53 PM 37.0°F 28.9°F 73% 30.07 in 10.0 miles ESE 6.9 mph - N/A   Partly Cloudy
11:53 PM 36.0°F 28.0°F 73% 30.09 in 10.0 miles ESE 6.9 mph - N/A   Mostly Cloudy
Moon Phase
Feb. 07 Feb. 10 Feb. 17 Feb. 25 Mar. 04
Sunrise:07:07 AM (PST) Moon Rise:04:56 AM (PST)2/7
Sunset:05:07 PM (PST) Moon Set:02:33 PM (PST)2/7

Copyright © 2014 The Weather Underground, Inc.